Regional Weather Roundup
Issued by NWS State College, PA

Home | Current Version | Previous Version | Graphics & Text | Print | Product List | Glossary Off
Versions: 1 2 3 4 5 6 7 8 9 10 11 12 13 14 15 16 17 18 19 20 21 22 23 24 25 26 27 28 29 30 31 32 33 34 35 36 37 38 39 40 41 42 43 44 45 46 47 48 49 50

000
ASUS41 KCTP 240203
RWRCTP

REGIONAL WEATHER ROUNDUP
NATIONAL WEATHER SERVICE STATE COLLEGE PA
900 PM EST THU NOV 23 2017

Note: "fair" indicates few or no clouds below 12,000 feet with no
significant weather and/or obstructions to visibility.

* = STATION THAT DOES NOT REPORT PRECIPITATION /E.G. RAIN...SNOW...ETC/
    THUNDER OR FOG.

PAZ002>004-007>009-013>016-020>023-029>032-240300-
WESTERN PENNSYLVANIA

CITY           SKY/WX    TMP DP  RH WIND       PRES   REMARKS
ERIE           CLOUDY    38  23  55 SW9       30.00S
MEADVILLE      CLOUDY    35  23  61 SW7       29.99R
FRANKLIN*      MOCLDY    33  20  58 SW8       29.99S
NEW CASTLE     CLOUDY    35  22  58 CALM      30.02F
BEAVER COUNTY  NOT AVBL
BUTLER*        CLOUDY    35  22  58 SW5       30.02S
PITTSBURGH INT MOCLDY    37  22  54 SW3       30.02R
PITTSBURGH     CLOUDY    37  20  50 W7        30.02R
INDIANA*       CLOUDY    32  25  74 CALM      30.05S
LATROBE        MOCLDY   N/A N/A N/A CALM      30.03S
WASHINGTON CO* CLOUDY    33  22  63 CALM      30.06R
$$

PAZ004>006-010>012-017>019-024>028-033>037-041-042-045-046-049>053-240300-
CENTRAL PENNSYLVANIA

CITY           SKY/WX    TMP DP  RH WIND       PRES   REMARKS
BRADFORD       CLOUDY    31  20  63 VRB6      29.96R
DUBOIS         CLOUDY    31  20  63 SW5       29.98R
CLEARFIELD     CLOUDY    31  21  66 S3        30.00R
JOHNSTOWN      CLEAR     31  19  61 SW9       29.97R
ALTOONA        CLEAR     34  18  52 CALM      30.00R
STATE COLLEGE  PTCLDY    30  19  64 CALM      30.01R
WILLIAMSPORT   CLEAR     32  23  69 CALM      30.02S
SELINSGROVE    CLEAR     26  23  88 CALM      30.05R
FT INDIANTOWN  CLEAR     30  22  74 CALM      30.03S
CAPITAL CITY   CLEAR     31  22  69 CALM      30.04R
HARRISBURG     PTCLDY    33  25  72 CALM      30.04R
YORK           CLEAR     24  23  96 CALM      30.03R
$$

PAZ038>040-043-044-047-048-054-055-060>062-067>071-240300-
EASTERN PENNSYLVANIA

CITY           SKY/WX    TMP DP  RH WIND       PRES   REMARKS
SCRANTON       CLOUDY    31  22  69 CALM      30.01R
MOUNT POCONO   MOCLDY    27  19  72 W6        29.94F
ALLENTOWN      CLEAR     28  18  66 SW5       30.02S
QUAKERTOWN*    CLEAR     27  23  86 CALM      30.03S
READING        CLEAR     30  24  78 CALM      30.03R
LANCASTER      CLEAR     32  23  69 CALM      30.04R
COATESVILLE    CLEAR     32  21  64 CALM      30.05R
POTTSTOWN      CLEAR     27  20  75 CALM      30.05R
BLUE BELL      CLEAR     28  23  80 CALM      30.07R
DOYLESTOWN     CLEAR     30  18  60 CALM      30.03R
WILLOW GROVE   NOT AVBL
NORTH PHILA    CLEAR     33  22  63 CALM      30.07R
PHILADELPHIA   CLEAR     38  20  48 W5        30.06R
$$




USA.gov is the U.S. government's official web portal to all federal, state and local government web resources and services.